Location: Unspecified
(0.0000°N, 0.0000°E)
Time: 23:14:57
(UTC+00:00)

Vanguard 2 - Pass Details

Date: 01 October 2020
Orbit: 554 x 2937 km, 32.9° (Epoch: 28 October)

Event Time Altitude Azimuth Distance (km) Brightness Sun altitude
Rises 11:49:42 0° 314° (NW) 2,824 10.4 86.5°
Reaches altitude 10° 11:51:42 10° 318° (NW) 2,033 9.8 86.5°
Maximum altitude 11:56:12 57° 38° (NE) 941 9.0 86.1°
Drops below altitude 10° 12:03:01 10° 116° (ESE) 3,058 10.7 85.2°
Sets 12:06:39 0° 119° (ESE) 4,417 11.4 84.5°
